DateTime,F1_A11,F1_S11,BsB_S11,BsG_S11,BsR_S11,BbsB_S11,BbsG_S11,BbsR_S11,BaB_A11,BaG_A11,BaR_A11,T_S11,U_S11,P_S11,T1_A11
2016-09-16T00:00:00Z,0000380,20000600,,,,,,,,,,27.5,02.0,0660.6,34.8
2016-09-16T00:01:00Z,0000380,20000600,,,,,,,,,,27.5,02.0,0660.6,34.8
2016-09-16T00:02:00Z,0000380,20000600,,,,,,,,,,27.5,02.0,0660.6,34.8
2016-09-16T00:03:00Z,0000380,60000600,,,,,,,,,,27.5,02.0,0660.6,34.8
2016-09-16T00:04:00Z,0000380,40000600,0000.31,0000.04,0000.38,0000.11,0000.77,-000.27,0000.03,0000.01,0000.00,27.5,02.1,0661.6,34.8
2016-09-16T00:05:00Z,0000380,00000600,0000.74,0000.60,0000.65,0000.06,0000.05,-000.32,0000.01,0000.03,0000.00,27.6,02.2,0661.6,34.8
2016-09-16T00:06:00Z,0000380,00000600,0000.17,0000.07,0000.04,-000.08,0000.00,-000.26,0000.09,0000.13,0000.21,27.6,02.1,0661.6,34.8
2016-09-16T00:07:00Z,0000380,00000600,0000.14,0000.02,-000.02,0001.04,0000.00,0000.08,0000.12,-000.05,-000.09,27.6,02.1,0661.6,34.8
2016-09-16T00:08:00Z,0000380,00000600,0000.14,0000.42,0000.31,0000.19,0000.08,-000.08,-000.19,0000.04,0000.23,27.6,02.0,0661.6,34.8
2016-09-16T00:09:00Z,0000380,00000600,0000.27,0000.51,0000.58,0000.02,0000.08,0000.13,-000.05,-000.06,-000.16,27.6,02.0,0661.6,34.8
2016-09-16T00:10:00Z,0000380,00000600,0000.26,-000.19,0000.02,0000.18,0000.61,-000.59,0000.14,0000.05,-000.10,27.6,02.0,0661.6,34.8
2016-09-16T00:11:00Z,0000380,00000600,0000.17,0001.06,-000.07,-000.18,0000.37,0000.02,-000.03,0000.05,0000.24,27.6,02.1,0661.6,34.8
2016-09-16T00:12:00Z,0000380,00000600,-000.31,0000.19,0000.67,0000.02,0000.02,-000.05,-000.07,-000.00,0000.10,27.6,02.1,0661.6,34.8
2016-09-16T00:13:00Z,0000380,00000600,0001.63,0000.83,0000.51,-000.02,0000.32,-000.16,0000.14,-000.03,-000.07,27.6,02.1,0661.6,34.8
2016-09-16T00:14:00Z,0000380,00000600,0000.84,0000.34,0000.00,0000.32,0000.00,-000.18,0000.09,-000.05,-000.04,27.6,02.0,0661.6,34.8
2016-09-16T00:15:00Z,0000380,00000600,0000.00,0000.47,0000.34,0000.45,0000.26,-000.18,-000.07,-000.05,-000.22,27.6,02.1,0661.6,34.8
2016-09-16T00:16:00Z,0000380,00000600,0001.12,0000.00,0000.36,-000.19,0000.18,-000.37,-000.12,-000.01,0000.27,27.6,02.1,0661.6,34.8
2016-09-16T00:17:00Z,0000380,00000600,-000.81,-000.17,-000.10,-000.11,0000.14,-000.16,0000.28,-000.04,-000.13,27.6,02.0,0661.6,34.8
2016-09-16T00:18:00Z,0000380,00000600,0000.25,0000.11,-000.02,0001.04,0000.64,0000.10,-000.04,0000.29,0000.12,27.6,02.0,0661.6,34.8
2016-09-16T00:19:00Z,0000380,00000600,0000.10,0000.02,-000.10,0000.05,-000.02,-000.11,-000.14,-000.09,-000.28,27.6,02.0,0661.6,34.8
2016-09-16T00:20:00Z,0000380,00000600,0000.16,0000.08,-000.05,0000.00,-000.21,-000.29,0000.16,0000.03,0000.20,27.6,02.0,0661.6,34.8
2016-09-16T00:21:00Z,0000380,00000600,0000.06,0000.23,0000.08,0000.21,0000.10,-000.32,-000.09,-000.11,-000.04,27.6,01.9,0661.6,34.8
2016-09-16T00:22:00Z,0000380,00000600,-000.14,0000.39,0000.86,0000.64,0000.27,0000.26,0000.03,-000.02,-000.16,27.6,02.1,0661.6,34.8
2016-09-16T00:23:00Z,0000380,00000600,0000.86,-000.08,0000.58,0000.05,0000.40,0000.32,0000.07,0000.13,0000.46,27.6,02.0,0661.6,34.8
2016-09-16T00:24:00Z,0000380,00000600,0000.56,-000.08,0000.62,0000.59,0000.21,0000.13,-000.11,-000.06,-000.25,27.6,02.0,0661.6,34.8
2016-09-16T00:25:00Z,0000380,00000600,0000.78,0000.18,0000.11,-000.16,-000.08,0000.10,0000.14,0000.16,0000.02,27.6,02.1,0661.6,34.8
2016-09-16T00:26:00Z,0000380,00000600,-000.54,0000.45,0000.57,-000.95,0000.61,0000.02,-000.06,-000.11,0000.04,27.6,02.1,0661.6,34.8
2016-09-16T00:27:00Z,0000380,00000600,0000.43,0000.31,0000.38,0000.16,0000.85,0000.05,-000.13,0000.05,-000.18,27.6,02.1,0661.6,34.8
2016-09-16T00:28:00Z,0000380,00000600,0000.11,-000.23,0000.09,0000.75,0000.19,-000.18,0000.09,-000.03,0000.11,27.6,02.2,0661.6,34.8
2016-09-16T00:29:00Z,0000380,00000600,0000.43,-000.12,-000.47,0000.21,0000.08,-000.18,-000.05,-000.00,-000.01,27.6,02.1,0661.6,34.8
2016-09-16T00:30:00Z,0000380,00000600,0000.54,-000.23,0000.28,0000.21,0000.24,-000.18,0000.03,-000.07,0000.28,27.6,02.1,0661.6,34.8
2016-09-16T00:31:00Z,0000380,00000600,0000.47,-000.28,-000.14,0000.10,0000.38,-000.03,-000.08,-000.00,-000.18,27.6,02.1,0661.6,34.8
2016-09-16T00:32:00Z,0000380,00000600,0000.78,0000.37,-000.08,0000.35,0000.24,-000.55,0000.11,0000.18,-000.11,27.6,02.1,0661.6,34.8
2016-09-16T00:33:00Z,0000380,00000600,0000.30,0000.59,-000.23,0000.71,0000.32,-000.13,-000.14,-000.09,0000.08,27.6,02.1,0661.5,34.8
2016-09-16T00:34:00Z,0000380,00000600,-000.22,0000.07,-000.10,0000.10,0000.14,-000.21,0000.05,-000.01,0000.12,27.6,02.1,0661.5,34.8
2016-09-16T00:35:00Z,0000380,00000600,0001.26,-000.02,0000.52,0000.03,0000.16,0000.05,0000.06,0000.06,-000.10,27.6,02.0,0661.6,34.8
2016-09-16T00:36:00Z,0000380,00000600,-000.82,0000.58,0000.32,0000.03,0000.34,0000.00,0000.09,-000.09,-000.06,27.6,02.1,0661.6,34.8
2016-09-16T00:37:00Z,0000380,00000600,0000.58,-000.10,-000.14,0000.51,0000.00,-000.45,-000.10,-000.01,-000.18,27.6,02.0,0661.6,34.8
2016-09-16T00:38:00Z,0000380,00000600,0000.42,-000.07,-000.10,0000.51,0000.05,-000.11,0000.06,0000.18,0000.13,27.6,02.0,0661.6,34.8
2016-09-16T00:39:00Z,0000380,00000600,-000.03,-000.12,0000.23,0000.34,0000.29,-000.18,0000.02,-000.15,0000.14,27.6,02.0,0661.5,34.8
2016-09-16T00:40:00Z,0000380,00000600,0000.78,0000.13,-000.28,0000.71,0000.72,-000.32,-000.05,0000.09,-000.07,27.6,01.9,0661.6,34.8
2016-09-16T00:41:00Z,0000380,00000600,0000.92,-000.24,-000.05,0000.42,0000.16,0000.08,0000.06,-000.05,-000.22,27.6,02.0,0661.5,34.8
2016-09-16T00:42:00Z,0000380,00000600,0000.17,0000.23,0000.30,0000.40,0000.53,-000.05,0000.06,0000.09,0000.41,27.6,02.0,0661.5,34.8
2016-09-16T00:43:00Z,0000380,00000600,0000.06,0000.16,0000.48,-000.16,0000.13,0000.27,0000.18,-000.02,0000.06,27.6,01.9,0661.5,34.8
2016-09-16T00:44:00Z,0000380,00000600,0000.52,0000.43,0000.26,-000.14,0000.24,-000.34,-000.13,-000.03,-000.07,27.6,02.1,0661.5,34.8
2016-09-16T00:45:00Z,0000380,00000600,0000.31,0000.17,-000.07,0000.21,0000.29,-000.39,0000.07,-000.06,-000.13,27.6,02.1,0661.5,34.8
2016-09-16T00:46:00Z,0000380,00000600,0000.68,0000.33,0000.03,0000.06,-000.24,-000.37,-000.05,0000.01,0000.15,27.6,02.1,0661.5,34.8
2016-09-16T00:47:00Z,0000380,00000600,0000.23,0000.35,-000.02,-000.18,0000.38,-000.11,0000.14,0000.09,-000.03,27.6,02.0,0661.5,34.8
2016-09-16T00:48:00Z,0000380,00000600,0000.50,0000.34,0000.42,-000.27,0000.48,0000.05,-000.31,-000.11,-000.18,27.5,02.0,0661.5,34.8
2016-09-16T00:49:00Z,0000380,00000600,0000.08,0000.26,0000.36,0000.50,-000.03,-000.29,0000.22,0000.09,0000.14,27.5,02.1,0661.4,34.8
2016-09-16T00:50:00Z,0000380,00000600,0000.95,0000.20,0000.32,0000.75,0000.32,-000.21,0000.06,0000.03,0000.09,27.6,02.2,0661.5,34.8
2016-09-16T00:51:00Z,0000380,00000600,-000.10,0000.55,0000.07,0000.32,0000.59,-000.19,-000.20,-000.13,-000.14,27.5,02.3,0661.4,34.8
2016-09-16T00:52:00Z,0000380,00000600,0000.88,-000.19,-000.04,-000.08,0000.24,-000.29,0000.04,0000.07,0000.20,27.5,02.2,0661.4,34.8
2016-09-16T00:53:00Z,0000380,00000600,0000.62,-000.49,0000.37,-000.11,0000.19,-000.13,-000.01,0000.00,-000.27,27.5,02.1,0661.4,34.8
2016-09-16T00:54:00Z,0000380,00000600,0000.78,0000.02,0000.37,-000.37,-000.14,-000.55,0000.17,-000.08,0000.17,27.5,02.2,0661.4,34.8
2016-09-16T00:55:00Z,0000380,00000600,0000.71,0000.39,0000.47,0000.64,0000.56,0000.14,0000.01,0000.20,-000.13,27.5,02.2,0661.4,34.8
2016-09-16T00:56:00Z,0000380,00000600,-000.29,0000.16,-000.48,0000.27,0000.22,-000.43,0000.01,0000.09,0000.22,27.5,02.2,0661.4,34.8
2016-09-16T00:57:00Z,0000380,40000600,,,,,,,,,,,,0661.5,34.8
2016-09-16T00:58:00Z,0000380,60000600,,,,,,,,,,27.5,02.0,0660.4,34.8
2016-09-16T00:59:00Z,0000380,20000600,,,,,,,,,,27.5,02.0,0660.4,34.8
2016-09-16T01:00:00Z,0000380,20000600,,,,,,,,,,27.5,02.0,0660.4,34.7
2016-09-16T01:01:00Z,0000380,20000600,,,,,,,,,,27.5,02.0,0660.4,34.7
2016-09-16T01:02:00Z,0000380,20000600,,,,,,,,,,27.5,02.0,0660.4,34.7
2016-09-16T01:03:00Z,0000380,60000600,,,,,,,,,,27.5,02.0,0660.4,34.7
2016-09-16T01:04:00Z,0000380,40000600,-000.11,-000.11,0000.09,0000.45,0000.30,0000.42,-000.10,0000.07,-000.37,27.5,02.0,0661.4,34.7
2016-09-16T01:05:00Z,0000380,00000600,0000.17,-000.16,-000.27,0000.56,0000.26,0000.03,0000.12,-000.12,0000.05,27.5,02.0,0661.4,34.7
2016-09-16T01:06:00Z,0000380,00000600,0001.79,0000.08,0000.19,0000.58,-000.18,0000.47,-000.05,0000.19,0000.08,27.5,02.0,0661.4,34.7
2016-09-16T01:07:00Z,0000380,00000600,0001.05,-000.45,-000.88,0000.74,0000.05,-000.02,0000.28,-000.16,0000.42,27.5,02.0,0661.4,34.7
2016-09-16T01:08:00Z,0000380,00000600,-001.13,-000.02,-000.35,-000.16,-000.35,-000.45,-000.03,0000.06,-000.20,27.5,02.1,0661.4,34.7
2016-09-16T01:09:00Z,0000380,00000600,-000.02,0000.13,-000.07,0000.51,0000.08,-000.03,-000.34,0000.13,-000.01,27.6,02.2,0661.4,34.7
2016-09-16T01:10:00Z,0000380,00000600,0000.18,0000.48,-000.34,0000.56,0000.13,0000.00,0000.26,0000.03,0000.04,27.6,02.3,0661.4,34.7
2016-09-16T01:11:00Z,0000380,00000600,0001.19,-000.02,-000.15,0000.16,0000.06,0000.37,-000.02,-000.06,0000.34,27.6,02.2,0661.4,34.7
2016-09-16T01:12:00Z,0000380,00000600,0000.44,0000.24,-000.09,0000.38,-000.02,0000.14,0000.02,-000.01,-000.31,27.6,02.3,0661.4,34.7
2016-09-16T01:13:00Z,0000380,00000600,0001.22,-000.02,-000.15,0000.59,0000.27,-000.32,-000.12,-000.09,-000.20,27.6,02.2,0661.5,34.7
2016-09-16T01:14:00Z,0000380,00000600,0000.33,0000.08,0000.07,0000.79,0000.27,0000.35,-000.03,0000.22,0000.15,27.6,02.1,0661.4,34.7
2016-09-16T01:15:00Z,0000380,00000600,0000.25,-000.03,-000.20,0000.21,0000.05,-000.18,0000.09,0000.08,0000.11,27.7,02.2,0661.4,34.8
2016-09-16T01:16:00Z,0000380,00000600,0000.46,-000.42,0000.37,0000.82,-000.24,0000.19,-000.00,-000.20,-000.18,27.7,02.2,0661.4,34.8
2016-09-16T01:17:00Z,0000380,00000600,-000.28,-000.13,0000.05,0000.75,0000.18,-000.05,0000.10,0000.01,0000.26,27.6,02.2,0661.4,34.8
2016-09-16T01:18:00Z,0000380,00000600,0000.18,0000.11,-000.21,0000.21,0000.16,-000.24,-000.18,0000.07,-000.20,27.7,02.1,0661.5,34.8
2016-09-16T01:19:00Z,0000380,00000600,0000.04,-000.11,-000.46,0000.47,0000.18,-000.05,0000.05,0000.08,0000.18,27.7,02.2,0661.5,34.8
2016-09-16T01:20:00Z,0000380,00000600,0000.08,0000.16,0000.01,0000.50,-000.19,0000.13,0000.05,-000.12,-000.10,27.7,02.1,0661.5,34.8
2016-09-16T01:21:00Z,0000380,00000600,-000.32,0000.34,-000.40,-000.03,0000.13,0000.24,0000.20,0000.01,0000.13,27.7,02.1,0661.4,34.8
2016-09-16T01:22:00Z,0000380,00000600,0000.54,-000.10,-000.08,0000.63,0000.22,-000.21,-000.19,0000.13,0000.02,27.7,02.2,0661.5,34.8
2016-09-16T01:23:00Z,0000380,00000600,0000.65,0000.37,0000.05,0000.82,0000.21,0000.32,0000.01,-000.08,-000.16,27.7,02.2,0661.5,34.8
2016-09-16T01:24:00Z,0000380,00000600,0000.38,0000.15,-000.29,0000.47,-000.19,0000.13,-000.02,-000.08,0000.33,27.7,02.2,0661.4,34.8
2016-09-16T01:25:00Z,0000380,00000600,0000.57,-000.87,-000.16,0000.75,0000.14,0000.18,0000.14,0000.17,-000.02,27.7,02.2,0661.5,34.8
2016-09-16T01:26:00Z,0000380,00000600,-000.02,0000.09,0000.12,0000.66,0000.35,0000.19,-000.19,-000.13,-000.30,27.7,02.2,0661.5,34.8
2016-09-16T01:27:00Z,0000380,00000600,0000.34,0000.28,-000.07,0000.18,0000.16,0000.22,0000.05,-000.03,0000.01,27.7,02.2,0661.5,34.8
2016-09-16T01:28:00Z,0000380,00000600,0000.18,-000.03,-000.07,0000.39,0000.22,-000.11,-000.08,0000.09,0000.10,27.7,02.1,0661.5,34.8
2016-09-16T01:29:00Z,0000380,00000600,0000.40,0000.42,-000.03,0000.45,0000.16,-000.19,0000.05,-000.06,0000.05,27.7,02.1,0661.5,34.8
2016-09-16T01:30:00Z,0000380,00000600,0000.06,-000.04,-000.07,0000.48,0000.19,-000.10,-000.09,-000.07,0000.06,27.8,02.1,0661.5,34.8
2016-09-16T01:31:00Z,0000380,00000600,0000.44,-000.06,-000.17,0000.19,-000.08,-000.05,0000.11,0000.02,-000.37,27.8,02.0,0661.5,34.8
2016-09-16T01:32:00Z,0000380,00000600,0000.32,0000.06,-000.13,0000.55,-000.13,-000.24,0000.05,0000.03,0000.44,27.8,02.0,0661.4,34.8
2016-09-16T01:33:00Z,0000380,00000600,0000.05,-000.01,-000.08,0000.39,0000.35,-000.06,0000.22,0000.13,-000.06,27.8,02.0,0661.4,34.8
2016-09-16T01:34:00Z,0000380,00000600,-000.11,-000.47,0000.05,0000.34,-000.22,0000.06,-000.24,0000.03,0000.01,27.8,02.1,0661.4,34.8
2016-09-16T01:35:00Z,0000380,00000600,0000.42,0000.34,0000.22,0000.26,-000.24,0000.05,0000.04,-000.08,0000.05,27.8,02.2,0661.4,34.8
2016-09-16T01:36:00Z,0000380,00000600,0000.56,-000.22,0000.27,0000.42,-000.08,-000.10,-000.08,0000.06,-000.31,27.8,02.2,0661.4,34.8
2016-09-16T01:37:00Z,0000380,00000600,-000.15,-000.06,0000.02,0000.55,0000.02,-000.03,-000.09,-000.14,0000.24,27.8,02.2,0661.3,34.8
2016-09-16T01:38:00Z,0000380,00000600,0000.54,-000.62,-000.35,0000.22,0000.24,-000.51,0000.12,-000.03,-000.04,27.7,02.3,0661.4,34.8
2016-09-16T01:39:00Z,0000380,00000600,-000.50,-000.58,0000.07,0000.11,0000.14,-000.35,0000.17,0000.07,0000.25,27.7,02.5,0661.4,34.8
2016-09-16T01:40:00Z,0000380,00000600,-000.30,-000.07,0000.04,0000.18,-000.05,0000.16,-000.07,0000.14,0000.08,27.7,02.5,0661.4,34.8
2016-09-16T01:41:00Z,0000380,00000600,-000.44,-000.38,-000.23,0000.71,0000.32,-000.05,-000.15,-000.18,-000.20,27.7,02.7,0661.4,34.8
2016-09-16T01:42:00Z,0000380,00000600,0000.65,-000.36,-000.37,-000.10,-000.16,0000.16,-000.00,0000.09,0000.01,27.6,02.7,0661.4,34.8
2016-09-16T01:43:00Z,0000380,00000600,0000.26,0000.67,-000.21,-000.22,-000.16,0000.24,-000.29,-000.23,-000.34,27.6,02.4,0661.4,34.8
2016-09-16T01:44:00Z,0000380,00000600,0001.01,-000.22,-000.58,-000.21,0000.30,-000.06,0000.20,0000.23,0000.27,27.6,02.3,0661.4,34.8
2016-09-16T01:45:00Z,0000380,00000600,0000.61,-000.42,0000.53,0000.77,-000.18,-000.29,0000.05,0000.08,0000.10,27.6,02.3,0661.4,34.7
2016-09-16T01:46:00Z,0000380,00000600,0000.39,-000.60,0000.14,-000.16,0000.34,0000.00,0000.04,-000.05,-000.22,27.6,02.2,0661.3,34.7
2016-09-16T01:47:00Z,0000380,00000600,0000.08,0000.09,0000.08,0000.22,0000.19,-000.13,-000.13,0000.01,0000.22,27.6,02.3,0661.3,34.7
2016-09-16T01:48:00Z,0000380,00000600,0000.31,0000.34,-000.11,0000.56,0000.14,0000.13,0000.14,0000.07,-000.13,27.6,02.3,0661.3,34.7
2016-09-16T01:49:00Z,0000380,00000600,0000.55,-000.27,-000.02,0000.21,0000.56,0000.26,-000.12,0000.07,0000.02,27.6,02.2,0661.3,34.7
2016-09-16T01:50:00Z,0000380,00000600,0000.41,0000.41,-000.04,0000.69,0000.03,0000.02,0000.14,-000.04,0000.20,27.6,02.2,0661.3,34.7
2016-09-16T01:51:00Z,0000380,00000600,0001.57,-000.31,0000.21,0000.21,0000.00,0000.11,-000.01,-000.03,-000.36,27.6,02.2,0661.3,34.7
2016-09-16T01:52:00Z,0000380,00000600,0000.31,-000.16,-000.50,0000.83,-000.19,0000.31,-000.00,-000.05,0000.28,27.6,02.2,0661.3,34.7
2016-09-16T01:53:00Z,0000380,00000600,0001.92,0000.05,0000.16,0000.29,-000.03,-000.40,0000.09,0000.06,0000.14,27.7,02.3,0661.3,34.7
2016-09-16T01:54:00Z,0000380,00000600,0000.33,-000.24,-000.19,0000.11,0000.35,0000.24,0000.04,0000.01,-000.02,27.6,02.2,0661.3,34.7
2016-09-16T01:55:00Z,0000380,00000600,0000.63,0000.00,-000.05,0000.67,-000.32,0000.18,-000.05,0000.18,0000.02,27.6,02.2,0661.3,34.7
2016-09-16T01:56:00Z,0000380,00000600,0000.20,0000.46,-000.04,0000.51,-000.02,-000.06,0000.01,-000.14,-000.42,27.7,02.2,0661.3,34.7
2016-09-16T01:57:00Z,0000380,40000600,,,,,,,,,,,,0661.2,34.7
2016-09-16T01:58:00Z,0000380,60000600,,,,,,,,,,27.5,02.3,0660.3,34.7
2016-09-16T01:59:00Z,0000380,20000600,,,,,,,,,,27.5,02.2,0660.3,34.7
2016-09-16T02:00:00Z,0000380,20000600,,,,,,,,,,27.5,02.2,0660.3,34.8
2016-09-16T02:01:00Z,0000380,20000600,,,,,,,,,,27.5,02.2,0660.3,34.8
2016-09-16T02:02:00Z,0000380,20000600,,,,,,,,,,27.5,02.2,0660.3,34.8
2016-09-16T02:03:00Z,0000380,60000600,,,,,,,,,,27.6,02.2,0660.3,34.8
2016-09-16T02:04:00Z,0000380,40000600,-000.17,0000.45,0000.18,0000.43,0000.30,0000.06,0000.10,0000.05,-000.11,27.8,02.3,0661.2,34.8
2016-09-16T02:05:00Z,0000380,00000600,0000.96,0000.06,0000.28,-000.43,0000.40,-000.10,0000.01,0000.04,-000.11,27.8,02.2,0661.3,34.8
2016-09-16T02:06:00Z,0000380,00000600,0000.63,0000.37,0000.29,0000.51,-000.05,-000.08,-000.22,-000.12,0000.18,27.8,02.2,0661.3,34.8
2016-09-16T02:07:00Z,0000380,00000600,-000.60,0000.07,0000.11,0000.22,0000.11,0000.39,0000.09,0000.11,-000.01,27.8,02.1,0661.3,34.8
2016-09-16T02:08:00Z,0000380,00000600,-000.21,0000.44,-000.03,0000.39,0000.35,-000.32,0000.16,-000.07,0000.24,27.8,02.2,0661.3,34.8
2016-09-16T02:09:00Z,0000380,00000600,0000.66,0000.55,-000.05,0000.39,0000.06,-000.05,-000.13,-000.05,-000.26,27.8,02.2,0661.3,34.8
2016-09-16T02:10:00Z,0000380,00000600,0000.31,0000.24,-000.08,0000.18,-000.19,-000.02,0000.19,0000.08,0000.29,27.8,02.2,0661.3,34.8
2016-09-16T02:11:00Z,0000380,00000600,0000.37,0000.56,0000.14,-000.21,-000.06,-000.32,-000.17,0000.03,-000.14,27.8,02.4,0661.3,34.8
2016-09-16T02:12:00Z,0000380,00000600,-000.62,0000.43,0000.15,0000.06,-000.14,0000.03,-000.04,-000.22,-000.23,27.8,02.3,0661.3,34.8
2016-09-16T02:13:00Z,0000380,00000600,0000.58,0000.71,-000.11,0000.02,0000.03,-000.14,-000.14,0000.11,-000.03,27.8,02.4,0661.3,34.8
2016-09-16T02:14:00Z,0000380,00000600,0000.08,0000.36,0000.26,-000.69,0000.13,0000.00,0000.35,0000.07,0000.51,27.8,02.3,0661.3,34.8
2016-09-16T02:15:00Z,0000380,00000600,-000.52,0000.26,-000.11,-000.26,0000.30,-000.32,-000.14,-000.04,-000.26,27.8,02.3,0661.3,34.8
2016-09-16T02:16:00Z,0000380,00000600,-000.24,-000.13,-000.11,-000.08,0000.16,-000.21,0000.12,0000.08,-000.02,27.8,02.3,0661.3,34.8
2016-09-16T02:17:00Z,0000380,00000600,-000.23,0000.03,0000.03,-000.50,-000.22,0000.22,0000.01,-000.13,-000.07,27.8,02.2,0661.3,34.8
2016-09-16T02:18:00Z,0000380,00000600,-000.35,0000.40,0000.49,-000.39,-000.08,0000.39,-000.04,0000.13,0000.10,27.8,02.3,0661.3,34.8
2016-09-16T02:19:00Z,0000380,00000600,-000.12,0000.18,-000.15,-000.05,-000.13,-000.14,0000.00,0000.14,0000.29,27.8,02.3,0661.3,34.8
2016-09-16T02:20:00Z,0000380,00000600,0000.34,0000.39,0000.42,-000.05,0000.19,0000.34,0000.06,-000.08,-000.20,27.8,02.3,0661.3,34.8
2016-09-16T02:21:00Z,0000380,00000600,0000.72,0000.51,-000.20,-000.06,0000.13,-000.03,-000.12,-000.14,-000.35,27.8,02.3,0661.3,34.8
2016-09-16T02:22:00Z,0000380,00000600,0000.86,-000.09,0000.36,-000.29,0000.42,-000.13,-000.02,0000.06,0000.47,27.8,02.3,0661.3,34.8
2016-09-16T02:23:00Z,0000380,00000600,-000.50,0000.42,0000.24,-000.13,-000.10,-000.21,0000.14,0000.01,0000.09,27.8,02.2,0661.3,34.8
2016-09-16T02:24:00Z,0000380,00000600,0001.49,0000.87,0000.29,0000.10,0000.40,0000.00,-000.11,0000.06,-000.18,27.8,02.3,0661.3,34.8
2016-09-16T02:25:00Z,0000380,00000600,0000.18,0000.19,-000.13,0000.79,-000.05,0000.16,0000.03,-000.13,-000.18,27.8,02.3,0661.3,34.8
2016-09-16T02:26:00Z,0000380,00000600,0000.70,0000.76,0000.42,0000.50,-000.06,0000.11,0000.05,0000.09,0000.03,27.8,02.3,0661.3,34.8
2016-09-16T02:27:00Z,0000380,00000600,0000.43,0000.23,0000.08,0000.11,-000.08,-000.22,-000.04,-000.00,0000.31,27.8,02.3,0661.3,34.8
2016-09-16T02:28:00Z,0000380,00000600,-000.59,0000.06,-000.24,-000.35,0000.14,-000.16,0000.10,0000.13,-000.31,27.8,02.3,0661.3,34.8
2016-09-16T02:29:00Z,0000380,00000600,0001.30,0000.00,0000.39,0000.21,0000.21,-000.08,-000.04,-000.20,0000.13,27.8,02.3,0661.3,34.8
2016-09-16T02:30:00Z,0000380,00000600,0000.19,0000.55,0000.26,-000.26,0000.48,0000.00,0000.01,-000.04,0000.14,27.8,02.2,0661.3,34.8
2016-09-16T02:31:00Z,0000380,00000600,-000.57,0000.31,-000.23,0000.03,-000.10,0000.03,0000.12,0000.09,0000.07,27.8,02.2,0661.3,34.8
2016-09-16T02:32:00Z,0000380,00000600,0000.02,0000.05,0000.11,-000.21,0000.05,-000.14,-000.30,-000.06,-000.34,27.8,02.2,0661.3,34.8
2016-09-16T02:33:00Z,0000380,00000600,-000.05,0001.14,-000.31,0000.21,0000.18,-000.39,0000.25,0000.03,0000.17,27.8,02.2,0661.3,34.8
2016-09-16T02:34:00Z,0000380,00000600,0000.84,-000.21,0000.18,-000.11,-000.35,-000.22,-000.04,0000.14,0000.02,27.8,02.2,0661.3,34.8
2016-09-16T02:35:00Z,0000380,00000600,0000.70,0000.35,0000.29,-000.43,-000.22,0000.13,0000.03,0000.03,-000.04,27.8,02.2,0661.3,34.8
2016-09-16T02:36:00Z,0000380,00000600,0000.00,0000.28,0000.44,-000.51,0000.26,0000.05,-000.12,-000.15,0000.10,27.8,02.2,0661.3,34.8
2016-09-16T02:37:00Z,0000380,00000600,0000.07,0000.63,-000.29,-000.13,-000.11,-000.40,0000.07,0000.10,0000.03,27.8,02.2,0661.3,34.8
2016-09-16T02:38:00Z,0000380,00000600,0000.04,-000.33,-000.02,0000.51,-000.19,0000.08,-000.18,0000.08,-000.14,27.8,02.2,0661.3,34.8
2016-09-16T02:39:00Z,0000380,00000600,0000.33,0000.22,0000.12,0000.26,0000.37,0000.27,0000.21,-000.09,0000.03,27.8,02.2,0661.3,34.8
2016-09-16T02:40:00Z,0000380,00000600,0001.46,0000.38,-000.04,0000.47,0000.48,-000.14,0000.05,0000.10,-000.10,27.8,02.1,0661.3,34.8
2016-09-16T02:41:00Z,0000380,00000600,0000.06,0000.53,0000.03,-000.77,0000.05,0000.24,0000.04,-000.02,0000.02,27.8,02.0,0661.3,34.8
2016-09-16T02:42:00Z,0000380,00000600,-000.94,0000.32,-000.01,-000.29,-000.05,0000.10,-000.18,-000.02,0000.02,27.8,02.1,0661.3,34.8
2016-09-16T02:43:00Z,0000380,00000600,0000.58,0000.43,0000.22,0000.32,-000.30,0000.06,0000.02,-000.04,-000.13,27.8,02.1,0661.3,34.8
2016-09-16T02:44:00Z,0000380,00000600,-000.33,0000.29,0000.12,-000.47,0000.22,0000.16,0000.07,0000.02,0000.27,27.8,02.1,0661.3,34.8
2016-09-16T02:45:00Z,0000380,00000600,-000.08,0000.24,-000.11,0000.11,-000.02,-000.13,-000.01,0000.03,-000.05,27.8,02.1,0661.3,34.8
2016-09-16T02:46:00Z,0000380,00000600,-000.35,-000.01,-000.02,0000.16,-000.26,0000.18,0000.11,0000.08,0000.01,27.8,02.1,0661.2,34.8
2016-09-16T02:47:00Z,0000380,00000600,0000.16,0000.51,0000.05,-000.18,0000.42,0000.37,0000.11,0000.02,-000.01,27.8,02.2,0661.2,34.8
2016-09-16T02:48:00Z,0000380,00000600,0000.97,0001.07,0000.11,-000.19,0000.06,0000.14,0000.02,0000.02,0000.00,27.8,02.2,0661.3,34.8
2016-09-16T02:49:00Z,0000380,00000600,-000.61,0000.05,0000.18,-000.59,-000.08,0000.31,-000.10,0000.02,0000.10,27.8,02.2,0661.2,34.8
2016-09-16T02:50:00Z,0000380,00000600,0000.14,0000.21,0000.16,0000.11,0000.69,-000.29,0000.05,-000.09,-000.12,27.8,02.2,0661.3,34.8
2016-09-16T02:51:00Z,0000380,00000600,-000.36,0000.01,-000.16,-000.06,-000.10,-000.18,0000.22,0000.07,0000.07,27.8,02.2,0661.2,34.8
2016-09-16T02:52:00Z,0000380,00000600,0000.90,0000.55,0000.10,-000.05,0000.03,0000.18,0000.01,0000.05,0000.20,27.8,02.2,0661.2,34.8
2016-09-16T02:53:00Z,0000380,00000600,0000.28,0000.00,-000.03,0000.71,0000.16,0000.34,-000.20,-000.16,-000.22,27.8,02.2,0661.2,34.8
2016-09-16T02:54:00Z,0000380,00000600,0000.99,0000.72,-000.13,0000.10,0000.05,0000.02,0000.11,0000.01,-000.11,27.8,02.2,0661.2,34.8
2016-09-16T02:55:00Z,0000380,00000600,0000.89,0000.33,0000.31,0000.24,0000.21,-000.11,-000.07,-000.18,-000.11,27.8,02.1,0661.2,34.8
2016-09-16T02:56:00Z,0000380,00000600,0000.56,0000.25,0000.13,0000.40,0000.42,0000.27,-000.05,0000.20,0000.05,27.8,02.1,0661.2,34.8
2016-09-16T02:57:00Z,0000380,40000600,,,,,,,,,,,,0661.2,34.8
2016-09-16T02:58:00Z,0000380,60000600,,,,,,,,,,27.6,02.0,0660.2,34.8
2016-09-16T02:59:00Z,0000380,20000600,,,,,,,,,,27.6,02.0,0660.2,34.8
2016-09-16T03:00:00Z,0000380,20000600,,,,,,,,,,27.5,02.0,0660.2,34.7
2016-09-16T03:01:00Z,0000380,20000600,,,,,,,,,,27.5,02.0,0660.2,34.7
2016-09-16T03:02:00Z,0000380,20000600,,,,,,,,,,27.5,02.0,0660.2,34.7
2016-09-16T03:03:00Z,0000380,60000600,,,,,,,,,,27.6,02.0,0660.2,34.7
2016-09-16T03:04:00Z,0000380,40000600,-000.07,-000.07,-000.04,0000.79,-000.59,0000.10,-000.01,0000.13,-000.16,27.6,02.1,0661.1,34.7
2016-09-16T03:05:00Z,0000380,00000600,0000.40,0000.05,0000.12,-000.10,0000.00,-000.19,0000.13,-000.12,0000.28,27.6,02.0,0661.2,34.7
2016-09-16T03:06:00Z,0000380,00000600,-000.41,0000.89,-000.37,0000.39,0000.08,-000.10,-000.08,0000.15,-000.05,27.6,02.0,0661.2,34.7
2016-09-16T03:07:00Z,0000380,00000600,0000.76,0001.03,0000.24,-000.08,0000.21,0000.55,0000.10,0000.20,0000.29,27.6,02.0,0661.2,34.7
2016-09-16T03:08:00Z,0000380,00000600,0000.19,0000.31,0000.10,0000.27,-000.26,0000.08,-000.17,-000.04,-000.19,27.6,02.1,0661.2,34.7
2016-09-16T03:09:00Z,0000380,00000600,0000.28,-000.07,0000.23,-000.14,0000.30,0000.21,0000.09,-000.02,-000.10,27.5,02.1,0661.2,34.7
2016-09-16T03:10:00Z,0000380,00000600,0000.17,0001.01,0000.03,-000.45,0000.30,0000.39,-000.15,0000.00,0000.19,27.5,02.0,0661.2,34.7
2016-09-16T03:11:00Z,0000380,00000600,0000.45,0000.50,0000.49,0000.48,0000.62,0000.48,0000.17,-000.02,-000.02,27.5,02.0,0661.2,34.7
2016-09-16T03:12:00Z,0000380,00000600,-000.62,0000.22,0000.34,0000.66,0000.38,0000.27,0000.12,0000.11,0000.06,27.5,02.0,0661.2,34.7